DL2DHM-13 Weather Reports


Display with metric or nautical units.
time (UTC)temp
F
wind
direction
speed
MPH
gust
MPH
rain 1hr
in
rain 24hr
in
rain mn
in
humidity
%
barometer
mb
20260506134100 48 57 1.0 6.0 0.00 0.70 0.69 93 1005.7
20260506133600 48 27 2.0 6.0 0.00 0.70 0.69 93 1005.7
20260506133101 48 65 2.0 5.0 0.00 0.70 0.69 93 1005.7
20260506132605 48 82 2.0 5.0 0.00 0.70 0.69 93 1005.7
20260506132100 48 32 2.0 5.0 0.00 0.70 0.69 93 1005.6
20260506131601 48 28 2.0 6.0 0.00 0.70 0.69 93 1005.6
20260506131100 48 19 4.0 6.0 0.00 0.70 0.69 93 1005.5
20260506130602 48 13 3.0 6.0 0.00 0.70 0.69 93 1005.5
20260506130133 48 30 2.0 5.0 0.00 0.70 0.69 93 1005.5
20260506125602 48 72 2.0 4.0 0.00 0.70 0.69 94 1005.6
20260506125058 48 32 1.0 4.0 0.00 0.70 0.69 94 1005.6
20260506124558 48 9 1.0 4.0 0.00 0.70 0.69 94 1005.5
20260506124058 48 360 1.0 6.0 0.00 0.70 0.69 94 1005.5
20260506123559 48 19 2.0 5.0 0.01 0.70 0.69 94 1005.4
20260506123058 48 12 2.0 5.0 0.01 0.70 0.69 94 1005.3
20260506122558 48 28 2.0 5.0 0.01 0.70 0.69 94 1005.3
20260506122058 48 298 2.0 5.0 0.01 0.70 0.69 94 1005.3
20260506121557 48 26 3.0 5.0 0.01 0.70 0.69 94 1005.2
20260506121057 48 19 2.0 4.0 0.01 0.70 0.69 94 1005.2
20260506120556 48 26 1.0 4.0 0.02 0.70 0.69 94 1005.2
20260506120059 48 11 2.0 5.0 0.02 0.70 0.69 94 1005.0
20260506115556 48 11 1.0 5.0 0.02 0.70 0.69 94 1005.1
20260506115054 48 5 1.0 5.0 0.02 0.70 0.69 94 1005.0
20260506114556 48 5 1.0 5.0 0.02 0.70 0.69 94 1005.0
20260506114053 47 17 2.0 6.0 0.02 0.70 0.69 94 1004.9
20260506113553 48 13 2.0 6.0 0.02 0.69 0.69 94 1005.0
20260506113103 48 5 2.0 4.0 0.02 0.69 0.69 93 1005.0
20260506112552 48 283 1.0 5.0 0.02 0.69 0.69 93 1005.0
20260506112054 48 17 1.0 3.0 0.02 0.69 0.69 93 1005.1
20260506111553 48 17 1.0 4.0 0.02 0.69 0.69 93 1005.1
20260506111052 48 28 1.0 4.0 0.02 0.69 0.69 94 1005.2
20260506110551 48 35 1.0 5.0 0.01 0.69 0.68 93 1005.1
20260506110059 48 5 1.0 5.0 0.01 0.69 0.68 93 1005.0
20260506105551 48 17 2.0 6.0 0.00 0.68 0.67 93 1005.0
20260506105050 48 5 2.0 6.0 0.01 0.68 0.67 93 1004.9
20260506104605 48 19 3.0 5.0 0.01 0.68 0.67 93 1004.9
20260506104050 48 28 2.0 5.0 0.01 0.68 0.67 93 1004.9
20260506103550 48 27 2.0 7.0 0.01 0.68 0.67 93 1004.9
20260506103051 47 14 4.0 7.0 0.01 0.68 0.67 94 1004.8
20260506102550 47 38 4.0 9.0 0.01 0.68 0.67 94 1004.8
20260506102048 48 28 3.0 6.0 0.02 0.68 0.67 94 1004.8
20260506101556 48 34 3.0 6.0 0.02 0.68 0.67 94 1004.7
20260506101049 47 28 2.0 5.0 0.02 0.68 0.67 94 1004.7
20260506100550 47 9 2.0 6.0 0.02 0.68 0.67 93 1004.6
20260506100048 47 350 3.0 6.0 0.02 0.68 0.67 93 1004.6
20260506095550 47 334 2.0 4.0 0.02 0.68 0.67 93 1004.6
20260506095047 47 360 2.0 5.0 0.01 0.67 0.66 93 1004.6
20260506094555 47 13 2.0 5.0 0.01 0.67 0.66 93 1004.6
20260506094047 47 32 2.0 5.0 0.01 0.67 0.66 94 1004.6
20260506093548 47 60 1.0 6.0 0.01 0.67 0.66 93 1004.5
20260506093053 47 32 2.0 6.0 0.01 0.67 0.66 93 1004.5
20260506092546 47 21 3.0 6.0 0.01 0.67 0.66 93 1004.4
20260506092046 47 20 2.0 6.0 0.00 0.66 0.65 93 1004.4
20260506091545 47 36 3.0 6.0 0.00 0.66 0.65 93 1004.4
20260506091047 47 19 2.0 5.0 0.00 0.66 0.65 93 1004.3
20260506090550 47 73 1.0 4.0 0.00 0.66 0.65 93 1004.3
20260506090045 48 9 2.0 4.0 0.00 0.66 0.65 93 1004.3
20260506085544 47 59 1.0 5.0 0.00 0.66 0.65 93 1004.2
20260506085044 47 18 2.0 6.0 0.00 0.66 0.65 93 1004.1
20260506084548 47 339 2.0 5.0 0.00 0.66 0.65 93 1004.1
20260506084044 47 13 2.0 6.0 0.00 0.66 0.65 93 1004.1
20260506083542 47 16 2.0 8.0 0.00 0.66 0.65 93 1004.0
20260506083041 47 13 3.0 8.0 0.00 0.66 0.65 93 1004.0
20260506082542 47 35 2.0 6.0 0.00 0.66 0.65 93 1004.0
20260506082044 47 28 3.0 7.0 0.00 0.66 0.65 93 1004.0
20260506081539 47 36 4.0 8.0 0.00 0.66 0.65 93 1003.9
20260506081037 47 25 3.0 8.0 0.00 0.66 0.65 93 1003.9
20260506080536 48 15 3.0 6.0 0.00 0.66 0.65 93 1003.9
20260506073035 48 22 2.0 5.0 0.01 0.66 0.65 94 1003.7
20260506072531 48 32 3.0 5.0 0.01 0.66 0.65 94 1003.8
20260506072030 48 32 2.0 5.0 0.02 0.66 0.65 94 1003.8
20260506071530 48 20 2.0 5.0 0.02 0.66 0.65 94 1003.8
20260506071028 48 17 2.0 5.0 0.02 0.66 0.65 94 1003.8
20260506070529 48 42 2.0 6.0 0.02 0.66 0.65 94 1003.7
20260506062022 48 36 1.0 6.0 0.05 0.65 0.64 94 1003.6
20260506061522 48 22 3.0 6.0 0.05 0.65 0.64 94 1003.5
20260506061021 48 28 2.0 5.0 0.06 0.65 0.64 94 1003.5
20260506060524 48 27 2.0 5.0 0.06 0.65 0.64 94 1003.5
20260506051015 49 80 1.0 4.0 0.05 0.59 0.57 94 1003.4
20260506050521 49 44 1.0 5.0 0.06 0.59 0.57 94 1003.4
20260506045011 49 32 2.0 5.0 0.08 0.56 0.56 94 1003.3
20260506044511 49 53 1.0 5.0 0.08 0.56 0.56 94 1003.3
20260506044019 49 111 1.0 6.0 0.09 0.56 0.56 94 1003.3
20260506043510 49 46 2.0 5.0 0.09 0.56 0.56 94 1003.3
20260506043010 49 66 1.0 5.0 0.11 0.56 0.56 94 1003.3
20260506042509 49 70 1.0 5.0 0.11 0.56 0.55 94 1003.3
20260506042012 50 95 1.0 4.0 0.11 0.55 0.54 94 1003.4
20260506041517 50 111 1.0 4.0 0.11 0.54 0.54 94 1003.4
20260506041007 50 107 0.0 4.0 0.11 0.54 0.53 94 1003.4
20260506040510 50 104 1.0 4.0 0.12 0.53 0.52 94 1003.4
20260506040006 50 55 0.0 3.0 0.11 0.51 0.50 94 1003.4
20260506035506 50 77 0.0 4.0 0.11 0.50 0.50 94 1003.4
20260506035006 50 90 1.0 4.0 0.11 0.50 0.49 94 1003.4
20260506034508 50 92 0.0 3.0 0.11 0.49 0.48 94 1003.4
20260506034004 50 69 1.0 4.0 0.11 0.48 0.47 94 1003.4
20260506033505 50 82 1.0 4.0 0.10 0.46 0.46 94 1003.4
20260506033004 50 73 0.0 3.0 0.10 0.46 0.45 94 1003.5
20260506032503 50 73 1.0 4.0 0.10 0.45 0.44 94 1003.5
20260506032003 50 65 1.0 4.0 0.10 0.44 0.43 94 1003.6
20260506031503 50 121 1.0 5.0 0.10 0.43 0.43 94 1003.7
20260506031002 50 122 0.0 2.0 0.10 0.43 0.42 94 1003.7
20260506030501 50 122 0.0 2.0 0.09 0.41 0.40 94 1003.8
20260506030000 50 122 0.0 4.0 0.09 0.40 0.39 94 1003.8
20260506025601 50 122 1.0 4.0 0.09 0.39 0.39 94 1003.9
20260506025100 50 57 1.0 3.0 0.09 0.39 0.38 94 1003.9
20260506024559 50 82 0.0 2.0 0.09 0.38 0.37 93 1004.0
20260506024058 50 82 0.0 2.0 0.09 0.37 0.36 93 1004.0
20260506023558 50 83 0.0 3.0 0.09 0.36 0.35 93 1004.1
20260506023101 50 83 0.0 3.0 0.09 0.35 0.35 94 1004.1
20260506022555 50 94 0.0 3.0 0.09 0.35 0.34 94 1004.1
20260506022054 51 94 0.0 3.0 0.09 0.34 0.33 94 1004.2
20260506021557 51 103 0.0 3.0 0.08 0.33 0.32 94 1004.2
20260506021056 51 103 0.0 2.0 0.08 0.32 0.31 94 1004.3
20260506020553 51 103 0.0 2.0 0.08 0.31 0.31 94 1004.3
20260506020053 51 103 0.0 2.0 0.09 0.31 0.31 94 1004.4
20260506015556 51 103 0.0 1.0 0.08 0.31 0.30 94 1004.3
20260506015053 51 103 0.0 1.0 0.08 0.31 0.28 94 1004.4
20260506014556 51 105 0.0 0.0 0.08 0.30 0.28 94 1004.4
20260506014054 51 105 0.0 0.0 0.07 0.28 0.28 94 1004.4
20260506013552 51 105 0.0 0.0 0.07 0.28 0.27 94 1004.5
20260506013050 51 105 0.0 0.0 0.06 0.28 0.26 93 1004.6
20260506012550 51 105 0.0 0.0 0.06 0.27 0.25 93 1004.6
20260506012050 51 105 0.0 0.0 0.06 0.26 0.24 93 1004.6
20260506011548 51 105 0.0 1.0 0.07 0.26 0.24 93 1004.7
20260506011048 51 105 0.0 2.0 0.07 0.25 0.24 93 1004.7
20260506010550 51 105 0.0 2.0 0.06 0.24 0.23 93 1004.7
20260506010049 51 105 0.0 2.0 0.06 0.24 0.22 93 1004.7
20260506005547 51 105 0.0 2.0 0.07 0.24 0.22 93 1004.8
20260506005047 51 105 0.0 2.0 0.08 0.24 0.21 93 1004.8
20260506004548 51 105 0.0 2.0 0.08 0.23 0.20 93 1004.9
20260506004046 51 105 0.0 4.0 0.09 0.23 0.20 93 1004.8
20260506003546 51 109 1.0 4.0 0.09 0.22 0.20 93 1004.9
20260506003045 51 123 1.0 2.0 0.09 0.22 0.20 93 1004.9
20260506002547 51 121 0.0 4.0 0.09 0.21 0.19 93 1005.0
20260506002045 51 121 1.0 6.0 0.10 0.20 0.18 93 1005.0
20260506001606 51 87 1.0 4.0 0.10 0.20 0.17 93 1005.0
20260506001044 51 81 0.0 2.0 0.09 0.19 0.17 93 1005.0
20260506000543 51 80 1.0 3.0 0.09 0.19 0.17 93 1005.0
20260506000048 51 76 0.0 5.0 0.09 0.18 0.16 93 1005.0
20260505235543 51 71 1.0 5.0 0.09 0.18 0.15 93 1005.1
20260505235044 51 41 1.0 4.0 0.07 0.17 0.13 93 1005.1
20260505234549 51 107 1.0 6.0 0.07 0.16 0.13 93 1005.2
20260505234042 51 113 2.0 6.0 0.06 0.15 0.12 93 1005.2
20260505233543 51 87 2.0 6.0 0.06 0.14 0.11 93 1005.3
20260505233046 52 56 2.0 6.0 0.07 0.13 0.10 93 1005.3
20260505232539 52 72 1.0 8.0 0.08 0.13 0.09 93 1005.4
20260505232039 52 88 2.0 8.0 0.07 0.11 0.08 93 1005.3
20260505231548 52 42 1.0 5.0 0.06 0.10 0.07 93 1005.4
20260505231038 52 77 2.0 5.0 0.06 0.10 0.07 93 1005.3
20260505230537 52 66 1.0 5.0 0.06 0.09 0.06 93 1005.4
20260505230039 52 44 3.0 5.0 0.06 0.09 0.06 93 1005.4
20260505225538 52 48 1.0 4.0 0.06 0.11 0.06 93 1005.4
20260505225036 52 71 1.0 4.0 0.07 0.11 0.06 93 1005.4
20260505224540 52 76 1.0 4.0 0.06 0.10 0.06 93 1005.5
20260505224035 52 119 0.0 4.0 0.06 0.10 0.06 93 1005.5
20260505223534 52 119 1.0 4.0 0.06 0.09 0.05 93 1005.5
20260505223041 52 74 1.0 3.0 0.04 0.08 0.03 93 1005.6
20260505222534 52 89 1.0 5.0 0.02 0.06 0.02 93 1005.6
20260505222033 52 56 2.0 7.0 0.02 0.06 0.01 93 1005.7
20260505221532 52 70 2.0 6.0 0.02 0.06 0.01 93 1005.7
20260505221032 53 100 2.0 6.0 0.02 0.06 0.01 93 1005.6
20260505220530 53 355 3.0 5.0 0.01 0.05 0.00 93 1005.7
20260505220037 53 64 1.0 5.0 0.01 0.05 0.00 93 1005.7
20260505215528 53 93 1.0 5.0 0.00 0.05 0.04 93 1005.8
20260505215030 53 57 1.0 3.0 0.00 0.05 0.04 93 1005.8
20260505214547 53 44 1.0 6.0 0.00 0.05 0.04 93 1005.9
20260505214028 53 89 2.0 6.0 0.00 0.05 0.04 93 1005.9
20260505213530 53 42 2.0 4.0 0.00 0.05 0.04 92 1005.9
20260505213043 53 42 2.0 4.0 0.00 0.05 0.04 92 1006.0
20260505212525 53 69 1.0 6.0 0.00 0.05 0.04 92 1006.0
20260505212024 53 53 1.0 6.0 0.00 0.05 0.04 92 1006.1
20260505211525 53 59 2.0 4.0 0.00 0.05 0.04 92 1006.1
20260505211024 53 52 1.0 4.0 0.00 0.05 0.04 92 1006.1
20260505210523 53 55 1.0 5.0 0.00 0.05 0.04 92 1006.1
20260505210028 53 63 2.0 6.0 0.00 0.05 0.04 92 1006.1
20260505205524 53 88 2.0 6.0 0.00 0.08 0.04 92 1006.1
20260505205026 53 69 2.0 5.0 0.00 0.08 0.04 92 1006.1
20260505204528 53 44 1.0 4.0 0.00 0.08 0.04 92 1006.2
20260505204020 53 44 2.0 4.0 0.00 0.08 0.04 92 1006.2
20260505203520 53 32 2.0 5.0 0.00 0.08 0.04 92 1006.2
20260505203022 53 53 2.0 5.0 0.00 0.08 0.04 92 1006.2
20260505202519 53 47 1.0 3.0 0.00 0.08 0.04 92 1006.2
20260505202019 53 28 0.0 5.0 0.00 0.08 0.04 92 1006.2
20260505201523 53 25 2.0 5.0 0.00 0.08 0.04 92 1006.1
20260505201019 53 59 1.0 3.0 0.00 0.08 0.04 92 1006.2
20260505200519 53 79 1.0 3.0 0.00 0.08 0.04 92 1006.2
20260505200019 53 79 1.0 5.0 0.00 0.08 0.04 92 1006.2
20260505195518 53 97 0.0 5.0 0.00 0.12 0.04 92 1006.2
20260505195017 53 63 1.0 5.0 0.00 0.12 0.04 92 1006.2
20260505194517 53 22 2.0 5.0 0.00 0.12 0.04 92 1006.2
20260505194020 53 38 2.0 4.0 0.00 0.12 0.04 92 1006.2
20260505193516 53 87 2.0 4.0 0.00 0.12 0.04 92 1006.2
20260505193035 53 84 1.0 6.0 0.00 0.12 0.04 92 1006.2
20260505192517 53 23 2.0 6.0 0.00 0.12 0.04 92 1006.2
20260505192015 53 65 1.0 4.0 0.00 0.12 0.04 92 1006.1
20260505191515 53 36 2.0 5.0 0.00 0.12 0.04 92 1006.1
20260505191018 53 33 2.0 5.0 0.00 0.12 0.04 92 1006.1
20260505190517 53 38 2.0 5.0 0.00 0.12 0.04 92 1006.1
20260505190026 53 57 1.0 4.0 0.00 0.12 0.04 92 1006.1
20260505185519 53 76 1.0 4.0 0.00 0.20 0.04 92 1006.1
20260505185013 53 38 1.0 4.0 0.00 0.20 0.04 92 1006.1
20260505184518 53 69 2.0 6.0 0.00 0.20 0.04 92 1006.2
20260505184012 53 38 3.0 6.0 0.00 0.20 0.04 92 1006.1
20260505183514 53 43 3.0 5.0 0.00 0.20 0.04 92 1006.1
20260505183017 53 85 1.0 4.0 0.00 0.20 0.04 92 1006.2
20260505182510 54 52 2.0 4.0 0.00 0.20 0.04 92 1006.2
20260505182010 54 69 1.0 4.0 0.00 0.20 0.04 92 1006.3
20260505181516 54 33 2.0 4.0 0.00 0.20 0.04 92 1006.3
20260505181018 54 14 1.0 6.0 0.00 0.20 0.04 91 1006.2
20260505180509 54 84 3.0 6.0 0.00 0.20 0.04 92 1006.2
20260505180017 54 355 3.0 6.0 0.00 0.20 0.04 91 1006.3
20260505175510 54 55 1.0 4.0 0.00 0.39 0.04 91 1006.2
20260505175009 54 42 1.0 5.0 0.00 0.39 0.04 91 1006.2
20260505174509 54 79 2.0 6.0 0.00 0.39 0.04 91 1006.2
20260505174008 54 106 1.0 8.0 0.00 0.39 0.04 91 1006.2
20260505173508 54 29 3.0 8.0 0.00 0.39 0.04 91 1006.3
20260505173007 54 22 3.0 6.0 0.00 0.39 0.04 91 1006.3
20260505172506 54 57 1.0 6.0 0.00 0.39 0.04 91 1006.3
20260505172008 54 44 2.0 10.0 0.00 0.39 0.04 91 1006.3
20260505171521 54 34 5.0 10.0 0.00 0.39 0.04 91 1006.4
20260505171005 54 75 3.0 10.0 0.00 0.39 0.04 90 1006.3
20260505170505 54 52 3.0 7.0 0.00 0.39 0.04 90 1006.3
20260505170010 55 138 2.0 4.0 0.00 0.39 0.04 90 1006.4
20260505165504 55 125 1.0 9.0 0.00 0.39 0.04 90 1006.4
20260505165005 55 98 3.0 9.0 0.00 0.39 0.04 90 1006.3
20260505164504 55 94 3.0 8.0 0.00 0.39 0.04 90 1006.2
20260505164003 55 132 4.0 8.0 0.00 0.39 0.04 90 1006.4
20260505163501 55 32 2.0 7.0 0.00 0.39 0.04 90 1006.4
20260505163001 55 81 3.0 7.0 0.00 0.39 0.04 90 1006.5
20260505162501 55 5 4.0 8.0 0.00 0.39 0.04 90 1006.5
20260505162001 55 5 3.0 8.0 0.00 0.39 0.04 90 1006.5
20260505161600 55 65 2.0 8.0 0.00 0.39 0.04 90 1006.5
20260505161106 55 32 3.0 6.0 0.00 0.39 0.04 90 1006.5
20260505161002 55 41 3.0 7.0 0.00 0.39 0.04 90 1006.5
20260505160603 55 36 2.0 8.0 0.00 0.39 0.04 90 1006.6
20260505153107 55 40 2.0 6.0 0.00 0.39 0.04 90 1006.8
20260505152554 55 11 4.0 9.0 0.00 0.39 0.04 89 1006.8
20260505152053 55 42 4.0 9.0 0.00 0.39 0.04 89 1006.8
20260505151553 55 59 2.0 5.0 0.00 0.39 0.04 89 1006.9
20260505151053 55 5 2.0 6.0 0.00 0.39 0.04 89 1006.9
20260505150553 56 53 2.0 5.0 0.00 0.39 0.04 89 1006.9
20260505150111 56 11 3.0 5.0 0.00 0.39 0.04 89 1006.9
20260505140549 57 49 2.0 6.0 0.00 0.39 0.04 87 1007.2